Location: Conjunto Santa Maria
(19.9513°S, 43.9599°W)
Time: 13:13:32
(UTC+00:00)

H-2A R/B - Pass Details

Date: 21 January 2021
Orbit: 734 x 836 km, 98.2° (Epoch: 03 March)

Event Time Altitude Azimuth Distance (km) Brightness Sun altitude
Rises 22:21:35 0° 168° (SSE) 3,198 5.4 -9.6°
Reaches altitude 10° 22:23:54 10° 167° (SSE) 2,261 4.6 -10.1°
Maximum altitude 22:28:52 86° 80° (E) 743 1.9 -11.1°
Drops below altitude 10° 22:33:46 10° 349° (NNW) 2,230 4.3 -12.2°
Sets 22:36:01 0° 348° (NNW) 3,150 5.0 -12.7°
